RH
28 30 34 38 44 52 60 67 73 74 74 74 75 77 80 84 88 94 100 104 105 105 103 101 100 98 94 91 89 87 82 78 76 75 77 80 83 86 88 88 86 81 81 85 88 86 83 79 75 72 73 77 82 86 90 92 91 89 86 82 79 76 76
27 27 27 27 29 31 34 39 46 53 59 64 68 71 74 78 81 85 90 95 101 104 105 104 104 105 103 100 97 95 92 90 86 82 80 78 78 79 82 84 85 84 84 88 92 94 91 86 81 75 72 72 75 79 84 89 91 91 89 87 85 81 78
30 30 30 30 29 29 30 30 31 33 36 41 45 50 56 62 69 75 81 87 92 95 99 101 101 104 106 106 103 100 99 98 95 93 91 89 85 81 79 78 79 79 81 85 90 94 96 94 92 89 86 82 78 78 83 88 93 96 96 93 91 89 85
28 30 31 32 31 31 32 32 32 33 32 32 33 33 36 39 44 51 59 67 75 81 87 92 96 100 102 103 102 102 103 103 101 99 99 99 97 93 88 83 79 76 77 80 86 91 94 94 94 95 96 95 91 88 88 91 95 101 104 104 101 100 98
26 28 29 30 31 31 31 31 32 33 34 34 34 34 34 33 32 33 35 40 46 54 61 70 80 88 95 99 101 101 102 101 99 99 101 103 104 103 101 95 89 83 78 77 82 88 93 95 93 93 95 96 96 94 93 94 96 100 105 109 110 109 108
22 25 27 28 30 31 31 32 31 31 31 32 34 35 36 36 35 34 32 32 31 33 36 41 49 58 69 79 88 94 98 100 98 97 98 100 101 103 104 102 99 96 90 85 83 85 89 94 94 92 93 95 96 95 93 92 93 95 99 104 108 110 111
16 18 20 22 25 27 29 31 32 33 33 33 32 32 33 34 35 36 36 36 35 33 31 31 31 34 39 46 55 64 74 81 85 88 89 89 89 90 92 92 94 97 97 94 93 94 96 100 100 97 96 97 100 101 98 95 95 95 95 97 101 104 107
13 14 15 17 18 20 22 24 27 29 31 33 33 33 33 33 33 34 35 36 37 37 37 35 33 32 31 32 34 37 42 48 53 58 63 66 69 71 73 75 78 82 85 87 91 96 101 106 108 106 103 101 102 105 105 102 101 99 95 94 96 98 102
9 10 11 13 14 16 17 19 20 22 24 26 29 30 32 33 33 33 34 34 36 37 38 38 38 37 36 34 33 32 31 32 33 35 39 43 47 51 54 56 58 60 64 66 69 75 82 89 97 100 102 103 103 105 107 106 105 104 99 96 96 95 96
7 7 8 8 9 11 12 14 16 18 19 20 22 23 25 27 29 31 32 34 35 35 35 36 36 37 37 37 37 36 35 34 33 32 32 33 34 36 38 39 40 41 43 45 47 49 53 60 67 74 80 85 87 89 93 96 97 97 94 92 92 92 93
6 6 6 7 7 7 8 9 10 11 13 15 17 19 20 22 23 25 28 29 31 31 31 32 32 33 35 37 38 39 38 38 37 36 36 35 34 34 33 33 34 34 34 34 34 35 36 39 43 47 51 55 56 57 60 62 64 65 65 64 66 69 73
6 6 6 6 6 6 6 7 7 7 8 9 11 12 15 17 20 22 24 24 25 25 26 27 29 31 32 33 35 36 37 38 38 38 38 38 37 37 37 37 36 36 35 34 33 33 32 33 34 35 38 39 39 39 39 39 39 40 41 41 41 42 44
6 6 6 6 6 6 6 6 6 7 7 7 7 8 9 11 13 16 19 21 22 22 23 25 26 26 27 27 28 30 32 33 35 36 37 38 38 39 39 39 39 39 39 38 37 36 35 35 36 36 37 38 38 37 36 35 35 34 35 35 34 34 35
6 6 6 6 6 6 6 6 6 7 7 7 7 7 7 8 9 10 12 15 18 20 22 24 25 25 25 24 24 24 25 26 27 28 30 32 35 37 39 40 40 40 40 40 39 39 39 38 39 39 39 40 40 39 37 36 35 33 33 33 32 32 34
6 6 6 6 6 6 6 7 7 7 7 7 7 7 7 7 7 8 9 10 12 15 18 21 22 24 24 24 24 24 23 24 23 23 24 24 26 28 30 32 34 34 34 35 36 38 39 40 41 41 41 42 42 41 40 37 36 34 33 32 32 32 33
6 6 6 6 6 6 6 6 7 7 7 7 7 7 7 7 7 8 8 8 9 10 12 14 16 18 20 21 22 23 24 25 25 25 26 26 25 25 25 25 25 24 24 25 26 28 29 32 35 37 39 41 42 43 42 39 37 36 34 33 32 31 32
6 6 6 6 6 6 6 6 6 7 7 7 7 7 7 7 7 7 8 8 8 8 9 10 11 12 13 14 16 17 18 20 21 23 24 25 26 27 27 26 25 24 24 24 24 23 22 22 24 25 28 30 33 35 36 35 34 33 31 30 29 28 29
6 6 6 6 6 6 6 6 6 7 7 7 7 7 8 8 8 8 8 8 8 8 8 9 9 10 11 11 11 12 12 13 13 14 16 17 19 21 22 22 22 23 25 25 24 23 22 22 22 22 23 24 25 26 26 26 26 25 25 24 23 22 23
5 6 6 6 6 6 6 7 6 7 7 7 7 7 7 8 8 8 8 8 8 9 9 9 9 10 10 10 10 10 10 10 11 11 11 12 13 13 14 14 15 16 18 18 18 17 18 20 20 21 22 22 23 23 23 22 21 20 20 21 20 20 20
5 6 6 6 6 6 6 6 6 6 7 6 7 7 7 8 8 7 8 8 8 9 10 10 10 10 10 10 10 10 10 10 10 11 11 12 12 12 12 11 11 12 12 12 12 12 13 13 14 15 16 16 17 18 19 19 18 18 18 19 19 18 18
5 5 5 5 6 6 6 6 6 6 6 6 6 7 7 7 7 7 7 8 8 9 9 10 10 10 10 10 10 10 10 10 10 10 11 11 11 11 12 12 12 12 12 12 12 11 11 11 11 11 11 12 12 13 13 13 13 13 13 14 14 13 13
5 5 5 5 5 5 5 5 6 6 6 6 6 6 7 7 6 6 7 7 8 8 8 9 9 9 9 10 10 10 10 10 10 10 10 10 10 10 11 11 12 12 12 12 13 12 12 12 11 11 11 11 11 11 11 10 10 10 10 9 9 9 9
5 5 5 5 5 5 5 5 6 6 6 6 6 6 6 6 6 6 6 7 7 7 7 8 8 8 9 9 9 9 9 9 9 9 9 9 9 10 10 11 12 12 13 13 13 13 13 12 12 12 11 11 11 10 10 10 10 10 9 9 9 8 8
6 5 5 6 6 6 6 6 6 6 6 6 6 6 6 6 6 6 6 6 7 7 7 7 7 8 8 8 8 9 9 9 9 9 9 9 9 10 10 10 11 12 13 14 14 14 13 13 12 12 11 11 11 10 10 10 10 10 9 9 9 8 8
6 6 6 6 6 6 6 6 6 6 6 6 6 6 6 7 7 7 7 7 7 7 7 7 7 7 7 7 8 8 8 8 9 9 9 9 9 9 9 10 11 11 12 13 13 13 14 13 13 13 12 12 12 11 11 11 11 11 10 10 10 9 9
6 6 6 7 7 7 7 7 6 6 6 6 6 6 7 7 7 7 7 7 7 7 7 7 7 7 7 7 7 7 8 8 8 8 9 9 9 9 9 9 10 10 10 11 11 11 12 12 12 12 11 11 11 11 11 11 11 11 11 10 10 10 10
6 7 7 7 7 7 7 7 7 7 7 7 7 7 7 7 7 7 7 7 7 7 7 7 7 7 7 7 7 7 7 7 7 8 8 8 8 8 8 8 9 9 9 9 9 10 10 10 10 10 10 9 9 9 9 8 8 8 9 8 8 8 8
7 7 7 7 7 7 8 7 7 8 7 7 7 7 7 7 7 7 7 7 7 7 7 8 8 7 7 7 7 7 7 7 7 7 7 7 7 7 7 7 7 7 7 7 7 8 8 8 8 8 8 8 8 7 7 7 6 6 6 6 6 6 6
7 7 7 7 7 8 8 8 8 8 8 8 7 7 7 7 7 8 7 7 8 7 7 7 7 7 8 8 8 8 8 8 8 7 7 7 7 7 7 7 7 7 7 7 7 7 7 7 7 7 7 7 7 7 7 7 6 6 6 6 5 5 5
7 7 7 7 8 8 8 8 8 8 8 8 8 7 7 7 7 7 7 7 8 7 7 8 8 8 8 8 8 8 8 8 8 8 8 8 7 7 7 7 7 7 7 7 7 7 7 7 7 7 7 7 7 7 7 7 7 6 6 6 6 6 6
7 7 7 8 8 8 8 8 8 8 8 8 8 7 7 7 7 8 8 8 8 8 8 8 8 8 8 8 8 8 8 8 8 8 8 8 8 8 8 7 7 7 7 7 7 7 7 7 7 7 7 7 7 7 7 7 7 7 7 7 6 7 7
7 8 8 8 8 8 8 8 8 8 8 8 8 8 8 8 8 8 8 8 8 8 8 8 8 8 8 8 8 8 8 8 8 8 8 8 8 8 8 8 8 8 7 7 7 7 7 7 6 7 7 6 6 7 7 7 7 7 6 7 6 7 7
8 8 8 8 8 8 8 8 8 8 8 8 8 8 8 8 8 8 8 8 8 8 8 8 8 8 9 8 9 9 9 9 9 9 9 9 9 9 9 8 8 8 8 8 8 7 7 7 7 7 7 6 6 6 6 6 6 6 6 6 6 6 6
8 8 9 9 9 9 8 8 8 8 8 9 9 9 9 9 9 9 9 9 9 9 9 10 9 9 10 9 9 10 10 10 10 10 10 10 9 9 9 9 9 9 8 8 8 8 8 8 7 7 7 7 6 6 6 6 6 5 5 5 5 5 6
8 8 9 9 9 9 9 9 9 9 9 9 9 10 10 10 10 10 10 10 10 10 10 10 10 10 10 10 10 10 10 10 10 10 10 9 9 9 9 9 8 8 8 8 8 8 8 8 8 8 8 7 7 7 7 7 7 6 6 6 5 5 6
9 9 9 9 9 10 9 9 9 9 9 10 10 11 11 11 11 11 11 11 11 11 11 11 11 10 10 10 10 10 10 10 10 9 9 9 9 8 8 8 8 8 8 8 8 8 8 8 8 8 8 7 7 7 7 7 7 7 6 6 6 5 5
Wind_Speed
117 118 119 121 122 123 123 124 124 124 124 124 124 124 125 125 126 127 128 129 130 131 130 130 130 130 130 130 129 129 128 128 128 128 128 128 128 127 127 127 127 125 123 123 123 123 123 124 124 124 123 123 122 122 123 124 125 126 126 126 126 125 124
117 117 118 119 120 121 122 123 124 125 126 126 126 127 127 127 127 128 128 129 130 131 132 132 132 132 133 133 132 132 132 131 131 130 130 129 129 129 130 130 130 129 127 126 126 126 126 126 126 126 125 124 124 123 123 124 125 126 127 127 127 128 127
119 119 119 119 119 120 120 121 122 124 125 126 127 128 128 129 129 130 130 130 131 132 132 132 133 133 134 135 135 135 134 134 134 134 133 133 132 132 131 131 132 131 130 129 129 129 129 129 129 128 128 127 126 125 125 124 125 126 127 127 128 128 129
121 121 121 121 121 121 121 121 122 122 123 124 125 126 127 128 129 130 131 132 133 133 133 133 134 134 134 135 136 136 136 136 136 136 136 136 135 135 134 134 134 133 131 130 130 130 130 131 131 131 131 131 130 129 128 127 126 127 127 128 129 130 130
122 122 123 123 123 123 123 123 123 123 124 124 124 125 126 127 128 129 130 131 133 134 134 135 135 135 136 136 136 137 137 138 138 138 138 137 137 138 138 138 137 136 135 133 132 132 132 132 132 132 133 133 133 133 132 131 130 129 129 130 131 132 132
122 123 123 124 124 124 125 125 125 125 125 125 125 125 126 126 127 128 129 130 131 132 133 134 135 136 137 137 138 138 138 139 139 139 139 139 139 139 139 140 140 140 139 137 136 135 135 135 135 135 134 135 136 136 136 135 133 132 131 132 134 135 136
119 120 122 123 124 124 125 125 126 126 126 126 127 127 127 127 127 127 128 129 130 130 131 132 133 134 135 137 138 139 139 140 140 140 140 140 140 140 140 140 140 140 140 140 139 139 139 139 139 138 137 137 139 139 139 138 137 136 135 135 136 137 139
114 115 117 119 121 122 123 124 125 125 126 127 127 127 127 127 127 128 128 128 129 129 130 131 132 133 134 135 136 137 138 139 140 140 141 141 141 141 141 141 141 141 141 141 140 140 140 141 141 141 140 140 141 142 142 142 142 141 140 139 138 138 140
109 111 112 114 115 117 118 120 121 122 124 125 126 126 127 127 127 127 128 128 129 129 130 130 131 132 133 134 134 135 136 137 138 138 139 140 141 141 141 141 141 141 141 141 141 141 141 141 141 141 141 142 142 143 144 144 145 145 143 142 141 140 140
105 107 108 110 111 112 114 115 116 118 119 121 122 123 124 125 126 127 127 128 128 129 130 130 131 131 132 132 133 134 134 135 136 136 137 138 139 140 140 141 141 141 141 141 141 140 140 141 141 141 142 142 143 144 144 145 146 146 145 144 143 142 140
101 103 104 106 107 109 110 111 112 113 115 116 117 119 120 121 122 124 125 127 128 128 129 129 129 130 130 130 131 132 133 134 135 135 136 136 137 138 138 139 139 139 139 140 140 139 139 140 140 140 141 142 142 143 144 144 145 145 145 144 144 142 141
97 99 100 101 103 104 106 107 108 110 111 112 113 114 115 117 118 120 122 124 125 126 127 127 127 128 128 129 130 131 132 133 133 134 134 135 135 136 136 137 137 138 138 139 139 138 138 138 139 139 140 141 141 142 143 143 143 143 143 143 143 142 141
92 94 96 97 98 99 100 102 103 105 106 108 109 110 110 112 114 116 118 119 121 122 123 124 125 126 127 127 128 129 130 131 131 132 132 133 133 134 134 135 136 136 137 137 138 137 137 137 138 138 139 140 141 142 142 142 142 142 142 142 142 141 140
87 89 91 93 94 94 95 96 98 99 101 103 104 105 106 108 111 112 114 115 116 117 118 120 121 123 124 125 126 126 127 128 129 129 130 131 131 132 133 134 135 135 136 136 136 136 136 136 137 138 138 139 140 142 142 142 142 142 142 142 141 140 140
82 84 86 87 89 90 90 91 93 95 96 98 99 100 102 104 106 107 109 110 112 113 115 116 117 118 119 121 122 123 123 124 125 126 127 128 129 130 132 133 134 134 135 135 135 135 135 136 136 137 137 137 139 141 141 141 141 141 141 141 140 140 140
78 79 81 83 84 85 85 86 88 90 92 94 95 96 98 99 101 102 104 106 107 109 111 112 113 114 115 116 118 119 120 121 122 123 124 125 126 127 129 130 131 131 132 133 133 134 134 134 135 136 137 137 138 139 140 141 140 140 140 140 140 139 138
74 75 77 79 80 80 81 82 83 85 87 89 90 92 94 95 96 97 99 101 102 104 105 106 107 109 111 113 114 115 117 118 119 120 121 122 123 125 126 127 128 128 129 130 131 131 132 132 133 133 134 135 136 138 139 139 139 139 139 139 139 137 136
72 72 74 75 76 77 78 78 79 81 82 84 85 87 89 90 91 93 94 96 97 97 98 99 101 103 106 108 110 111 112 113 114 115 116 118 120 122 124 125 125 126 127 129 129 130 130 130 130 131 132 133 134 135 136 137 137 137 137 138 137 136 135
69 70 71 72 73 73 74 75 76 77 79 80 81 82 84 86 88 89 90 91 92 92 93 95 96 97 100 102 104 105 106 107 108 109 110 112 114 116 118 120 121 123 125 126 127 128 128 129 130 130 131 131 132 133 134 135 134 134 134 135 135 135 134
67 68 69 69 70 70 71 72 73 74 75 76 77 78 80 83 85 86 86 87 88 89 90 91 93 94 96 97 99 100 100 101 102 103 105 106 107 109 110 112 114 116 118 120 122 123 125 126 127 128 129 130 131 132 132 133 133 132 133 133 134 134 133
65 65 66 67 67 68 69 69 70 71 72 73 74 75 77 80 82 82 82 83 84 86 87 89 90 92 93 94 95 96 97 98 98 99 101 102 102 103 104 106 107 108 110 111 113 116 118 119 121 122 124 125 127 128 129 129 130 130 131 131 131 130 130
62 63 63 64 64 65 66 66 67 68 69 70 71 72 74 77 78 77 78 80 81 83 84 86 87 88 90 91 92 93 94 95 95 96 97 98 98 99 100 101 102 103 104 105 106 107 109 111 113 114 116 118 119 121 123 124 124 125 126 126 125 124 124
59 60 60 61 61 62 63 63 64 65 66 67 68 69 71 74 74 73 75 77 78 80 81 82 84 85 86 88 89 90 90 91 92 93 94 94 95 95 96 97 98 99 99 100 100 101 102 104 105 106 108 109 110 112 113 115 117 118 119 119 118 118 118
56 57 57 58 59 60 61 61 62 64 65 65 65 66 68 70 70 70 72 73 75 76 78 79 81 82 83 84 85 86 87 88 89 89 90 91 91 92 93 93 94 95 95 95 96 96 97 98 99 99 100 102 103 104 105 107 108 109 111 111 111 111 112
54 54 55 56 57 58 58 59 61 62 63 63 64 64 65 66 67 68 69 70 72 73 74 76 77 78 79 81 82 82 83 84 85 85 86 87 87 88 89 89 90 90 91 91 92 92 93 93 94 95 96 97 98 99 100 101 102 103 104 105 106 106 106
52 52 53 54 55 55 56 57 59 60 61 62 62 62 63 64 65 66 67 68 69 70 71 72 73 74 75 76 77 78 79 80 80 81 81 82 83 83 84 85 85 86 87 88 88 89 89 90 91 92 93 94 95 95 96 97 98 99 100 101 102 102 102
50 50 51 52 53 53 54 56 57 58 59 60 60 61 62 62 63 64 65 66 67 68 68 69 70 71 72 73 74 75 75 76 76 77 78 78 78 79 80 80 81 82 82 83 84 85 86 87 88 89 90 91 92 93 94 95 95 95 96 98 99 99 98
48 49 49 50 51 51 53 54 55 56 57 58 59 59 60 60 61 62 63 63 64 65 66 67 68 69 70 71 71 72 72 73 73 74 74 75 75 76 76 77 77 78 79 79 80 81 82 83 84 85 87 88 89 90 91 92 92 92 93 94 95 95 94
46 47 47 48 49 50 51 52 53 54 55 56 57 58 58 58 59 60 61 61 62 63 64 65 66 66 67 68 69 69 70 71 71 72 72 73 73 74 74 75 75 75 76 76 77 78 79 80 81 82 83 84 85 87 88 89 90 90 90 91 91 91 90
44 45 45 46 47 48 49 50 51 52 53 54 55 56 56 57 57 58 59 59 59 60 61 62 63 64 65 65 66 67 68 69 70 70 71 71 72 73 73 73 74 74 74 75 75 76 77 78 79 80 81 81 83 84 85 86 87 88 88 88 88 88 88
42 43 44 44 45 46 47 48 49 50 51 52 53 54 54 55 55 55 56 56 57 58 58 59 60 62 62 63 64 65 66 67 68 68 69 69 70 71 71 72 72 73 73 73 73 74 74 75 76 77 78 79 80 81 82 83 84 84 85 85 85 86 86
41 41 42 43 44 44 45 46 47 48 49 49 50 51 52 52 53 54 54 55 55 56 57 57 58 59 60 61 62 63 63 64 65 65 66 67 67 68 69 70 70 71 71 72 72 72 72 73 73 74 75 76 76 77 78 79 80 81 81 82 82 82 83
40 40 40 41 42 43 44 45 46 46 47 47 48 49 50 51 52 52 53 53 54 54 54 55 56 57 58 58 59 60 60 61 62 63 64 64 65 66 67 68 68 69 70 70 71 71 71 72 72 73 73 74 74 75 75 76 77 77 77 78 78 79 79
39 39 39 40 40 41 42 43 44 45 45 46 46 47 48 49 49 50 51 51 52 52 53 53 54 55 56 57 57 58 59 59 60 61 62 63 64 65 65 66 67 67 68 69 69 70 70 71 71 72 73 73 74 74 75 75 76 76 75 75 75 75 76
38 38 39 39 40 40 41 42 43 43 44 44 44 45 46 46 47 48 49 50 50 51 51 52 53 54 54 55 56 57 57 58 59 60 60 61 62 63 64 64 65 65 66 67 67 68 69 69 70 71 72 72 73 73 74 74 75 75 75 75 74 73 73
37 38 38 39 39 40 40 41 41 42 42 43 43 43 44 45 46 47 47 48 49 49 50 51 51 52 53 54 54 55 56 57 57 58 59 60 60 61 61 62 63 63 64 64 65 65 66 66 67 68 69 69 70 70 71 72 72 73 73 74 73 73 72
Wind_Direction
258 257 257 256 256 256 256 255 255 255 255 255 255 255 255 255 255 255 255 255 255 255 255 256 256 257 257 257 257 257 257 256 256 255 255 255 255 255 255 256 256 256 255 255 255 255 255 256 256 256 255 255 256 256 257 258 258 259 259 259 259 259 258
259 258 257 257 256 256 256 255 255 255 255 255 255 255 255 255 255 255 255 255 255 255 255 255 255 256 256 257 257 257 257 258 258 257 257 256 255 255 255 255 255 255 255 255 256 256 256 257 257 257 257 256 256 256 256 257 258 259 260 260 260 260 260
258 258 258 257 257 256 256 256 255 255 255 255 255 255 255 255 255 255 255 255 255 255 255 255 255 255 256 256 256 257 257 257 258 258 258 258 258 257 257 256 256 256 255 255 255 256 256 257 257 258 258 258 257 257 257 257 257 258 259 260 260 261 261
258 258 257 257 257 257 256 256 256 256 255 255 255 255 255 255 255 255 255 255 255 255 255 255 255 256 256 256 256 256 257 257 257 257 258 258 259 259 259 259 258 258 257 256 256 256 256 256 257 257 258 258 258 258 257 257 257 257 258 259 260 260 261
258 258 257 257 257 257 257 257 256 256 256 255 255 255 255 255 255 255 255 255 255 255 255 255 255 256 256 256 256 256 257 257 257 257 257 257 258 258 259 259 259 259 259 259 258 258 257 257 257 257 257 257 257 257 257 257 256 256 257 258 259 259 260
258 258 258 257 257 257 257 257 257 256 256 256 256 255 255 255 255 255 255 255 255 255 255 255 255 256 256 256 256 256 256 257 257 257 257 257 257 257 258 258 258 259 259 259 259 259 259 259 259 258 258 258 258 258 258 257 257 256 256 256 257 258 259
259 258 258 258 258 257 257 257 257 257 257 256 256 256 256 255 255 255 255 255 255 255 255 255 256 256 256 256 256 256 256 257 257 257 258 258 258 258 258 258 258 258 259 259 259 259 259 259 259 259 259 260 260 260 260 260 259 258 257 256 256 257 258
259 259 258 258 258 258 258 257 257 257 257 257 257 257 256 256 256 256 255 255 255 255 255 255 255 256 256 256 256 256 256 256 257 257 258 258 258 259 259 259 259 259 259 259 259 259 259 259 259 260 260 260 260 260 260 260 260 260 259 258 257 257 257
260 259 259 259 259 258 258 258 258 257 257 257 257 257 257 257 256 256 256 256 256 255 255 255 255 255 255 255 256 256 256 256 257 257 258 258 258 259 259 259 259 259 259 259 259 259 259 259 259 259 259 260 260 260 260 260 260 260 260 260 259 259 259
260 260 260 259 259 259 259 258 258 258 258 257 257 257 257 257 257 257 257 256 256 256 256 255 255 255 255 255 256 256 256 257 257 257 257 258 258 258 259 259 259 260 260 260 260 260 260 260 259 259 259 259 259 259 260 260 260 260 260 260 260 259 259
261 260 260 260 259 259 259 259 259 259 258 258 258 257 257 257 257 257 257 256 256 256 256 256 256 256 256 256 256 256 256 256 256 257 257 257 257 258 258 259 259 259 260 260 260 260 260 260 260 260 260 260 260 260 260 260 260 260 260 260 260 259 259
262 261 261 260 260 259 259 259 259 259 259 259 258 258 258 258 257 257 257 256 256 257 257 257 257 257 257 257 256 256 256 256 256 256 257 257 257 257 258 258 259 259 259 259 260 260 260 260 260 260 260 260 260 260 260 260 260 260 260 260 260 259 259
262 262 262 261 261 260 260 260 260 260 260 260 260 259 259 258 258 257 257 257 257 257 257 257 257 257 257 257 257 257 257 257 257 257 257 257 258 258 258 258 258 258 258 259 259 259 259 259 259 259 259 259 260 260 260 260 260 260 259 259 259 259 259
261 261 261 261 261 261 260 260 260 260 260 260 260 260 259 259 258 258 257 257 257 257 257 257 257 257 257 257 258 258 258 258 258 258 259 259 259 259 259 259 259 258 258 258 258 259 259 259 259 259 258 258 259 259 259 259 259 259 259 259 259 259 259
261 261 261 261 260 260 260 260 260 259 259 259 260 260 259 259 258 258 258 257 257 257 257 257 257 257 257 257 258 258 258 258 259 259 259 259 259 259 259 259 259 259 259 259 259 259 259 259 259 259 259 258 258 259 259 259 259 259 259 259 259 259 259
262 261 261 261 261 260 260 259 259 259 259 259 259 259 259 259 258 258 258 258 257 257 257 257 257 257 258 258 258 258 258 258 259 259 259 259 259 259 259 259 259 259 260 260 260 260 259 259 259 259 259 259 259 259 259 259 259 259 259 259 259 259 259
262 262 261 261 261 261 260 260 259 259 259 259 259 259 259 259 259 258 258 258 258 258 258 258 258 258 258 258 258 258 258 258 258 258 259 259 259 259 260 260 260 260 260 260 260 260 260 259 259 259 259 259 259 259 260 260 260 260 260 260 260 260 259
264 263 262 261 261 261 261 261 260 260 259 259 259 259 260 260 260 259 259 259 259 259 259 259 259 259 259 259 259 259 259 259 259 259 259 259 259 259 259 260 260 260 260 260 260 260 260 260 260 260 260 260 260 260 260 260 260 260 261 261 261 261 261
265 264 263 263 262 262 262 261 261 261 260 260 260 260 260 260 260 260 260 260 260 260 260 260 259 259 259 259 259 260 260 260 260 260 260 259 259 259 259 259 260 260 260 260 260 260 261 261 261 261 260 260 260 260 260 261 261 261 261 261 262 262 262
265 265 264 264 263 263 262 262 261 261 261 261 260 260 260 260 260 260 260 261 261 261 261 261 260 260 260 260 260 261 261 261 261 261 261 260 260 260 260 260 260 260 260 260 260 261 261 261 261 261 261 261 261 261 261 261 261 262 262 262 262 262 262
265 265 264 264 264 263 263 262 262 262 261 261 261 260 260 260 260 260 261 261 261 261 261 261 261 261 261 261 261 261 261 261 261 261 261 261 261 261 261 261 261 261 261 261 261 261 261 261 261 261 261 261 261 261 262 262 262 262 262 262 262 262 262
266 265 265 264 264 264 263 263 262 262 261 261 261 260 260 260 261 261 261 261 261 261 261 261 261 262 262 262 262 262 262 262 262 262 262 262 262 262 262 263 263 263 263 263 262 262 262 262 262 261 261 261 261 261 262 262 262 262 262 262 262 262 262
267 267 266 265 265 264 263 263 263 262 262 261 261 260 260 261 261 261 261 261 261 261 261 262 262 262 262 262 262 262 262 263 263 263 263 263 263 263 263 264 264 264 264 264 264 264 263 263 263 263 262 262 261 261 261 261 261 262 262 262 262 262 262
269 268 267 266 266 265 264 264 264 263 262 262 261 261 261 262 262 262 262 261 261 261 261 261 262 262 262 263 263 263 263 263 263 263 263 264 264 264 264 264 264 265 265 265 265 265 265 264 264 264 263 263 262 262 262 261 261 261 261 262 262 262 262
270 269 268 267 266 266 265 265 265 264 264 264 263 263 263 263 263 263 262 262 262 262 262 262 262 262 262 263 263 263 264 264 264 264 264 264 264 264 264 264 264 265 265 265 265 265 265 265 265 265 264 264 263 263 262 262 262 261 261 261 261 261 261
270 269 269 268 267 267 267 266 266 266 266 266 265 265 265 265 264 264 264 264 264 264 264 264 264 264 264 264 264 264 264 264 264 264 264 264 264 264 264 264 264 265 265 265 265 265 265 265 265 265 265 264 264 264 263 262 262 262 262 262 261 261 261
271 270 269 269 268 268 268 268 267 267 267 267 267 267 266 266 266 266 266 266 266 266 266 266 266 266 266 266 266 266 266 266 265 265 265 265 265 265 265 264 264 264 264 264 264 264 264 264 264 264 264 264 264 264 264 263 263 262 262 262 262 261 261
271 271 270 270 269 269 269 269 268 268 268 268 268 268 268 267 267 267 267 267 267 267 267 267 267 267 267 267 267 268 268 268 268 267 267 267 266 266 266 265 265 264 264 264 263 263 263 263 263 263 263 264 264 264 264 264 264 263 263 263 262 262 262
272 272 271 271 270 270 269 269 269 269 269 269 269 269 268 268 268 268 267 267 267 267 267 268 268 268 269 269 269 269 269 269 269 269 269 269 269 268 268 268 267 267 266 266 265 265 265 264 264 264 264 264 264 264 264 265 265 265 264 264 264 264 263
273 273 272 272 272 271 270 270 270 270 270 270 270 270 269 269 269 268 268 268 268 268 268 268 269 269 269 269 269 269 269 270 270 270 270 270 270 270 270 270 269 269 268 268 267 266 266 265 265 265 265 264 264 264 264 265 265 265 266 266 266 266 266
274 274 273 272 272 272 271 271 271 271 271 271 271 271 271 271 271 270 270 269 269 269 268 268 268 268 268 269 269 269 269 270 270 270 271 271 271 271 271 271 271 270 270 269 268 268 267 267 266 266 265 265 265 265 265 265 265 265 265 265 266 266 266
275 274 274 273 273 273 273 273 272 272 272 272 272 272 272 272 271 271 270 269 269 269 269 269 269 269 269 269 270 270 270 270 270 271 271 271 271 271 271 271 271 271 271 271 271 270 270 269 269 268 268 267 266 266 265 265 265 265 265 265 265 265 265
277 276 275 275 274 274 274 274 273 273 273 272 272 272 272 272 272 272 272 272 272 272 272 271 271 271 271 271 271 272 272 272 272 272 272 272 272 272 272 272 272 272 272 272 272 272 272 272 271 271 271 270 270 269 268 267 267 266 265 265 264 264 264
279 278 277 276 276 275 275 274 274 274 274 273 273 273 274 274 274 274 274 274 274 274 274 274 274 274 274 274 274 274 274 273 273 273 273 273 273 272 272 272 272 273 273 273 273 273 273 273 273 273 273 273 272 272 272 271 270 270 268 267 266 265 265
281 281 280 279 279 278 277 277 277 276 276 276 276 276 276 276 276 276 276 276 276 276 276 275 275 275 275 275 274 274 274 274 274 273 273 273 273 273 273 273 273 273 273 273 273 273 273 273 273 272 272 272 272 272 272 272 272 272 271 271 269 268 267
283 283 283 282 282 281 280 279 279 279 279 279 279 278 277 277 277 277 277 277 276 276 276 275 275 275 275 275 275 275 275 275 275 275 274 274 274 274 274 274 274 274 273 273 273 272 272 272 272 272 271 271 271 271 271 271 271 271 271 271 271 270 269